Content
SEND FEEDBACK

Daily
Averages
Monthly
Summary
United States of America

WILMINGTON, NORTH CAROLINA


Home > North America > United States > North Carolina
Elevation: 21 meters     Latitude: 34 16N     Longitude: 077 54W

WEATHER
 
SELECT A DAY
Number of Records: 208,565;   Date Range: 1/1/95 - 7/7/14
 
SHARE

PRINT THIS DATA

[ ← Previous Day ]
WEATHER ALMANAC - 11 JANUARY, 2013
[ Next Day → ]
[ °F ]   °C
Weather ElementAverageHighLow
Temperature17.3 °C22 °C (2:53 pm)8.9 °C (1:53 am)
Dewpoint15.5 °C19 °C (2:10 pm)4.4 °C (1:53 am)
Humidity89 %94 % (11:58 am)74 % (1:53 am)
Barometer1024.4 hPa1029.1 hPa (1:53 am)1021.7 hPa (11:53 pm)
Wind Speed6.8 km/h16.7 km/h (3:53 pm)
Weather ElementAverage
Visibility11.1 km
Wind DirectionESE (124.6 °)

Weather ElementTotal
Precipitation39.37 mm
Heating Degree Days2.9 (Base 18.3)
Growing Degree Days5.4 (Base 10)
Averaged from 41 records on 11 January, 2013
WEATHER CONDITIONS BREAKOUT
WIND DIRECTION BREAKOUT
WEATHER BY HOUR - 11 JANUARY, 2013
[ °F ]   °C
Local TimeTemperatureDewpointHumidityBarometerVisibilityWind DirectionWind SpeedGust SpeedPrecipitationEventsConditions
1:53 AM8.9 °C4.4 °C74 %1029.1 hPa16.1 kmENE (60°)7.4 km/hClear
2:53 AM9.4 °C5.6 °C77 %1028.4 hPa16.1 kmENE (60°)9.3 km/hOvercast
3:53 AM11.7 °C8.3 °C80 %1027.4 hPa16.1 kmEast (80°)11.1 km/hOvercast
4:53 AM11.7 °C8.9 °C83 %1027.1 hPa16.1 kmENE (70°)11.1 km/hScattered Clouds
5:53 AM11.1 °C8.9 °C86 %1026.8 hPa16.1 kmEast (80°)7.4 km/hClear
6:53 AM11.1 °C9.4 °C89 %1026.8 hPa16.1 kmENE (70°)5.6 km/hPartly Cloudy
7:53 AM12.2 °C10 °C86 %1026.8 hPa16.1 kmEast (80°)11.1 km/hMostly Cloudy
8:53 AM14.4 °C11.7 °C84 %1027.1 hPa16.1 kmCalmOvercast
9:53 AM16.7 °C13.3 °C80 %1027.1 hPa16.1 kmCalmOvercast
10:53 AM16.7 °C14.4 °C86 %1026.1 hPa6.4 kmCalm0 mmRainLight Rain
11:32 AM17 °C15 °C88 %1025.4 hPa4 kmSW (230°)7.4 km/h0.51 mmRainLight Rain
11:35 AM17 °C15 °C88 %1025.4 hPa1.9 kmVariable5.6 km/h1.27 mmRainHeavy Rain
11:44 AM18 °C16 °C88 %1025.1 hPa3.2 kmSSE (150°)9.3 km/h2.03 mmRainLight Rain
11:53 AM17.8 °C16.7 °C93 %1025.1 hPa3.2 kmSSE (160°)7.4 km/h2.54 mmRainRain
11:58 AM18 °C17 °C94 %1024.7 hPa1.9 kmSSE (150°)9.3 km/h0.76 mmRainHeavy Rain
12:09 PM18 °C17 °C94 %1024.7 hPa4 kmCalm3.05 mmRainLight Rain
12:16 PM19 °C18 °C94 %1024.7 hPa16.1 kmSW (230°)5.6 km/h3.05 mmRainLight Rain
12:38 PM19 °C18 °C94 %1024.4 hPa16.1 kmCalm3.05 mmRainLight Rain
12:48 PM19 °C18 °C94 %1024 hPa4 kmCalm3.56 mmRainRain
12:53 PM18.9 °C17.8 °C93 %1024.4 hPa4 kmCalm3.81 mmRainLight Rain
1:01 PM19 °C18 °C94 %1024 hPa4 kmVariable5.6 km/h0.76 mmRainLight Rain
1:08 PM19 °C18 °C94 %1023.7 hPa6.4 kmSSW (200°)7.4 km/h0.76 mmRainLight Rain
1:15 PM19 °C18 °C94 %1023.7 hPa2.9 kmSouth (170°)7.4 km/h1.27 mmRainRain
1:23 PM19 °C18 °C94 %1024 hPa3.2 kmWest (260°)11.1 km/h2.03 mmRainLight Rain
1:31 PM19 °C18 °C94 %1023.7 hPa9.7 kmWest (260°)5.6 km/h2.29 mmRainLight Rain
1:41 PM19 °C18 °C94 %1023.7 hPa2.9 kmCalm2.54 mmRainRain
1:50 PM19 °C18 °C94 %1023.4 hPa4.8 kmCalm3.05 mmRainLight Rain
1:53 PM18.9 °C17.8 °C93 %1023.4 hPa8 kmSouth (170°)5.6 km/h3.05 mmRainLight Rain
2:10 PM20 °C19 °C94 %1023.4 hPa16.1 kmSouth (190°)7.4 km/h0 mmMostly Cloudy
2:17 PM21 °C19 °C88 %1023.4 hPa16.1 kmSSW (200°)11.1 km/h0 mmMostly Cloudy
2:53 PM22 °C19 °C83 %1023 hPa16.1 kmSSW (200°)9.3 km/hMostly Cloudy
3:08 PM22 °C19 °C83 %1022.7 hPa16.1 kmSSW (200°)13 km/hScattered Clouds
3:53 PM21.7 °C18.3 °C81 %1022.4 hPa16.1 kmSSW (200°)16.7 km/hScattered Clouds
4:53 PM21.1 °C17.8 °C81 %1022.4 hPa16.1 kmSSW (200°)9.3 km/hClear
5:53 PM18.9 °C17.2 °C90 %1022.4 hPa16.1 kmSouth (180°)9.3 km/hClear
6:53 PM18.3 °C16.7 °C90 %1022.7 hPa16.1 kmSSW (210°)9.3 km/hClear
7:53 PM17.8 °C16.7 °C93 %1022.4 hPa16.1 kmSSW (200°)9.3 km/hClear
8:53 PM17.8 °C16.7 °C93 %1022.4 hPa16.1 kmSSW (210°)7.4 km/hClear
9:53 PM17.8 °C16.1 °C90 %1022 hPa16.1 kmSSW (200°)9.3 km/hClear
10:53 PM16.7 °C15.6 °C93 %1022.4 hPa11.3 kmSW (220°)5.6 km/hClear
11:53 PM17.2 °C16.1 °C93 %1021.7 hPa16.1 kmSW (220°)9.3 km/hMostly Cloudy
Hourly data recorded from KILM, located 0 kilometers away from Wilmington, North Carolina







STORIES FROM OUR PARTNERS